When you browse on this site, cookies collect data to enhance your experience and personalize the content and advertising you see.
Visit our Privacy Policy to learn more. By continuing to use the site, you agree to this use of cookies and data.
  • In Czech Republic
  • List of Countries
  • For 7 days
  • Water Temperature
  • Weather Map
  • Weather Widgets
  • user-avatar
    Login

    Hourly Weather San Miguel de Tucumán

    Today, 24 September, Tuesday

    Time Temperature Precipitation Wind Pressure Humidity
    00:00 +19°C° 0 mm 1 mps 724 mmHg 39%
    01:00 +19°C° 0 mm 1 mps 724 mmHg 42%
    02:00 +18°C° 0 mm 1 mps 724 mmHg 44%
    03:00 +16°C° 0 mm 1 mps 724 mmHg 46%
    04:00 +16°C° 0 mm 1 mps 724 mmHg 47%
    05:00 +15°C° 0 mm 1 mps 724 mmHg 49%
    06:00 +18°C° 0 mm 1 mps 725 mmHg 45%
    07:00 +20°C° 0 mm 1 mps 725 mmHg 40%
    08:00 +22°C° 0 mm 1 mps 726 mmHg 36%
    09:00 +24°C° 0 mm 1 mps 726 mmHg 32%
    10:00 +26°C° 0 mm 2 mps 726 mmHg 29%
    11:00 +29°C° 0 mm 2 mps 726 mmHg 25%
    12:00 +30°C° 0 mm 2 mps 725 mmHg 24%
    13:00 +31°C° 0 mm 2 mps 725 mmHg 22%
    14:00 +33°C° 0 mm 3 mps 724 mmHg 21%
    15:00 +31°C° 0 mm 3 mps 724 mmHg 22%
    16:00 +31°C° 0 mm 3 mps 724 mmHg 23%
    17:00 +30°C° 0 mm 3 mps 724 mmHg 23%
    18:00 +28°C° 0 mm 2 mps 724 mmHg 29%
    19:00 +25°C° 0 mm 2 mps 725 mmHg 34%
    20:00 +23°C° 0 mm 1 mps 726 mmHg 39%
    21:00 +22°C° 0 mm 1 mps 726 mmHg 40%
    22:00 +22°C° 0 mm 1 mps 726 mmHg 42%
    23:00 +21°C° 0 mm 1 mps 726 mmHg 43%

    Tomorrow, 25 September, Wednesday

    Time Temperature Precipitation Wind Pressure Humidity
    00:00 +21°C° 0 mm 1 mps 726 mmHg 45%
    01:00 +20°C° 0 mm 1 mps 726 mmHg 46%
    02:00 +19°C° 0 mm 1 mps 725 mmHg 48%
    03:00 +19°C° 0 mm 1 mps 726 mmHg 49%
    04:00 +19°C° 0 mm 1 mps 726 mmHg 50%
    05:00 +19°C° 0 mm 1 mps 726 mmHg 51%
    06:00 +20°C° 0 mm 1 mps 726 mmHg 47%
    07:00 +22°C° 0 mm 1 mps 727 mmHg 43%
    08:00 +23°C° 0 mm 1 mps 727 mmHg 39%
    09:00 +26°C° 0 mm 1 mps 727 mmHg 34%
    10:00 +29°C° 0 mm 1 mps 727 mmHg 29%
    11:00 +32°C° 0 mm 1 mps 727 mmHg 25%
    12:00 +32°C° 0 mm 2 mps 726 mmHg 23%
    13:00 +34°C° 0 mm 2 mps 725 mmHg 22%
    14:00 +34°C° 0 mm 2 mps 725 mmHg 20%
    15:00 +34°C° 0 mm 3 mps 724 mmHg 21%
    16:00 +33°C° 0 mm 3 mps 724 mmHg 21%
    17:00 +33°C° 0 mm 3 mps 723 mmHg 22%
    18:00 +29°C° 0 mm 2 mps 723 mmHg 26%
    19:00 +27°C° 0 mm 2 mps 723 mmHg 31%
    20:00 +24°C° 0 mm 2 mps 723 mmHg 35%
    21:00 +23°C° 0 mm 2 mps 724 mmHg 36%
    22:00 +21°C° 0 mm 2 mps 724 mmHg 38%
    23:00 +22°C° 0 mm 1 mps 724 mmHg 39%

    Day after tomorrow, 26 September, Thursday

    Time Temperature Precipitation Wind Pressure Humidity
    00:00 +21°C° 0 mm 1 mps 723 mmHg 40%
    01:00 +20°C° 0 mm 1 mps 723 mmHg 42%
    02:00 +20°C° 0 mm 1 mps 723 mmHg 43%
    03:00 +19°C° 0 mm 1 mps 723 mmHg 44%
    04:00 +19°C° 0 mm 1 mps 722 mmHg 44%
    05:00 +19°C° 0 mm 1 mps 722 mmHg 45%
    06:00 +21°C° 0 mm 1 mps 723 mmHg 41%
    07:00 +23°C° 0 mm 1 mps 723 mmHg 36%
    08:00 +25°C° 0 mm 1 mps 724 mmHg 32%
    09:00 +27°C° 0 mm 1 mps 724 mmHg 28%
    10:00 +30°C° 0 mm 1 mps 724 mmHg 24%
    11:00 +34°C° 0 mm 2 mps 724 mmHg 20%
    12:00 +35°C° 0 mm 2 mps 723 mmHg 19%
    13:00 +36°C° 0 mm 3 mps 722 mmHg 18%
    14:00 +37°C° 0 mm 3 mps 722 mmHg 17%
    15:00 +37°C° 0 mm 4 mps 721 mmHg 17%
    16:00 +36°C° 0 mm 4 mps 720 mmHg 18%
    17:00 +35°C° 0 mm 5 mps 720 mmHg 19%
    18:00 +33°C° 0 mm 4 mps 720 mmHg 22%
    19:00 +29°C° 0 mm 3 mps 720 mmHg 26%
    20:00 +26°C° 0 mm 2 mps 720 mmHg 30%
    21:00 +25°C° 0 mm 2 mps 720 mmHg 31%
    22:00 +24°C° 0 mm 2 mps 720 mmHg 33%
    23:00 +23°C° 0 mm 2 mps 720 mmHg 35%

    27 September, Friday

    Time Temperature Precipitation Wind Pressure Humidity
    00:00 +21°C° 0 mm 2 mps 720 mmHg 36%
    01:00 +20°C° 0 mm 2 mps 719 mmHg 38%
    02:00 +20°C° 0 mm 1 mps 719 mmHg 40%
    03:00 +20°C° 0 mm 1 mps 718 mmHg 41%
    04:00 +19°C° 0 mm 1 mps 718 mmHg 43%
    05:00 +18°C° 0 mm 1 mps 718 mmHg 44%
    06:00 +20°C° 0 mm 1 mps 718 mmHg 40%
    07:00 +22°C° 0 mm 1 mps 718 mmHg 36%
    08:00 +23°C° 0 mm 1 mps 719 mmHg 32%
    09:00 +26°C° 0 mm 1 mps 718 mmHg 28%
    10:00 +29°C° 0 mm 1 mps 718 mmHg 24%
    11:00 +31°C° 0 mm 1 mps 718 mmHg 20%
    12:00 +33°C° 0 mm 1 mps 717 mmHg 18%
    13:00 +35°C° 0 mm 2 mps 717 mmHg 17%
    14:00 +37°C° 0 mm 2 mps 716 mmHg 15%
    15:00 +36°C° 0 mm 2 mps 716 mmHg 16%
    16:00 +36°C° 0 mm 2 mps 715 mmHg 17%
    17:00 +35°C° 0 mm 2 mps 715 mmHg 18%
    18:00 +31°C° 0 mm 2 mps 716 mmHg 22%
    19:00 +29°C° 0 mm 2 mps 716 mmHg 26%
    20:00 +26°C° 0 mm 1 mps 717 mmHg 30%
    21:00 +25°C° 0 mm 1 mps 717 mmHg 32%
    22:00 +24°C° 0 mm 1 mps 718 mmHg 33%
    23:00 +24°C° 0 mm 1 mps 718 mmHg 34%

    28 September, Saturday

    Time Temperature Precipitation Wind Pressure Humidity
    00:00 +23°C° 0 mm 1 mps 718 mmHg 36%
    01:00 +23°C° 0 mm 1 mps 718 mmHg 38%
    02:00 +22°C° 0 mm 1 mps 718 mmHg 40%
    03:00 +21°C° 0 mm 1 mps 718 mmHg 42%
    04:00 +21°C° 0 mm 1 mps 718 mmHg 44%
    05:00 +20°C° 0 mm 1 mps 718 mmHg 46%
    06:00 +21°C° 0 mm 1 mps 719 mmHg 43%
    07:00 +23°C° 0 mm 2 mps 719 mmHg 41%
    08:00 +24°C° 0 mm 2 mps 719 mmHg 38%
    09:00 +27°C° 0 mm 2 mps 719 mmHg 34%
    10:00 +29°C° 0 mm 2 mps 719 mmHg 29%
    11:00 +32°C° 0 mm 2 mps 719 mmHg 25%
    12:00 +34°C° 0 mm 2 mps 719 mmHg 23%
    13:00 +36°C° 0 mm 2 mps 718 mmHg 21%
    14:00 +37°C° 0 mm 2 mps 717 mmHg 19%
    15:00 +37°C° 0 mm 2 mps 717 mmHg 19%
    16:00 +37°C° 0 mm 2 mps 717 mmHg 19%
    17:00 +36°C° 0 mm 2 mps 716 mmHg 20%
    18:00 +34°C° 0 mm 2 mps 716 mmHg 24%
    19:00 +30°C° 0 mm 2 mps 717 mmHg 28%
    20:00 +27°C° 0 mm 1 mps 717 mmHg 32%
    21:00 +27°C° 0 mm 1 mps 717 mmHg 33%
    22:00 +26°C° 0 mm 1 mps 717 mmHg 34%
    23:00 +26°C° 0 mm 1 mps 717 mmHg 35%

    29 September, Sunday

    Time Temperature Precipitation Wind Pressure Humidity
    00:00 +25°C° 0 mm 1 mps 717 mmHg 36%
    01:00 +25°C° 0 mm 1 mps 716 mmHg 37%
    02:00 +25°C° 0 mm 1 mps 716 mmHg 38%
    03:00 +24°C° 0 mm 1 mps 715 mmHg 40%
    04:00 +23°C° 0 mm 1 mps 715 mmHg 42%
    05:00 +22°C° 0 mm 1 mps 715 mmHg 44%
    06:00 +24°C° 0 mm 1 mps 715 mmHg 40%
    07:00 +26°C° 0 mm 1 mps 715 mmHg 36%
    08:00 +28°C° 0 mm 1 mps 715 mmHg 32%
    09:00 +31°C° 0 mm 1 mps 715 mmHg 28%
    10:00 +35°C° 0 mm 2 mps 714 mmHg 24%
    11:00 +37°C° 0 mm 2 mps 714 mmHg 20%
    12:00 +39°C° 0 mm 2 mps 713 mmHg 18%
    13:00 +41°C° 0 mm 2 mps 713 mmHg 17%
    14:00 +42°C° 0 mm 2 mps 712 mmHg 15%
    15:00 +42°C° 0 mm 2 mps 711 mmHg 16%
    16:00 +41°C° 0 mm 2 mps 711 mmHg 16%
    17:00 +42°C° 0 mm 3 mps 710 mmHg 16%
    18:00 +38°C° 0 mm 2 mps 711 mmHg 20%
    19:00 +35°C° 0 mm 2 mps 711 mmHg 23%
    20:00 +31°C° 0 mm 2 mps 711 mmHg 27%
    21:00 +31°C° 0 mm 2 mps 711 mmHg 27%
    22:00 +30°C° 0 mm 2 mps 711 mmHg 27%
    23:00 +30°C° 0 mm 3 mps 711 mmHg 27%
    Show more